St. Stephen, New Brunswick

1:14 AM ADT on May 26, 2017 (GMT -0300)
St. Stephen

Weather History for CWSS - February, 2012

Change the Weather History Date:

Wednesday, February 1, 2012

  Actual Average Record
Temperature  
Mean Temperature 25 °F -  
Max Temperature 31 °F - - ()
Min Temperature 19 °F - - ()
Degree Days  
Heating Degree Days 40    
Moisture  
Dew Point 21 °F    
Average Humidity 92    
Maximum Humidity 97    
Minimum Humidity 86    
Precipitation  
Precipitation 0.31 in - - ()
Sea Level Pressure  
Sea Level Pressure 29.90 in    
Wind  
Wind Speed 4 mph ()    
Max Wind Speed 7 mph    
Max Gust Speed -    
T = Trace of Precipitation, MM = Missing Value Source: Averaged Metar Reports

Daily Weather History Graph

Daily Weather History Graph

Search for Another Location

Airport or City:

Trip Planner

Search our weather history database for the weather conditions in past years. The results will help you decide how hot, cold, wet, or windy it might be!

Date:

Astronomy

Feb. 01, 2012 Rise Set
Actual Time 7:49 AM AST 5:35 PM AST
Civil Twilight 7:18 AM AST 6:07 PM AST
Nautical Twilight 6:43 AM AST 6:42 PM AST
Astronomical Twilight 6:08 AM AST 7:17 PM AST
Moon 11:56 AM AST (2/1) 2:35 AM AST (2/1)
Length of Visible Light 10h 48m
Length of Day
9h 45m
Waxing Gibbous, 64% of the Moon is Illuminated
Feb 1
Waxing Gibbous
Feb 7
Full
Feb 14
Last Quarter
Feb 21
New
Feb 29
First Quarter

Hourly Weather History & Observations

Time (AST) Temp. Windchill Dew Point Humidity Pressure Visibility Wind Dir Wind Speed Gust Speed Precip Events Conditions
12:00 AM 19.8 °F 13.2 °F 16.9 °F 89% 30.13 in - East 4.6 mph - N/A   Unknown
1:00 AM 19.8 °F 13.2 °F 17.2 °F 90% 30.12 in - ENE 4.6 mph - 0.02 in   Unknown
2:00 AM 21 °F - 18 °F 86% 30.09 in - ENE 4.6 mph - -  
2:00 AM 20.7 °F 14.2 °F 18.5 °F 91% 30.09 in - ENE 4.6 mph - 0.01 in   Unknown
3:00 AM 20.8 °F 13.2 °F 18.9 °F 92% 30.07 in - ENE 5.8 mph - 0.01 in   Unknown
4:00 AM 20.8 °F 13.2 °F 19.0 °F 93% 30.05 in - East 5.8 mph - N/A   Unknown
5:00 AM 21 °F - 19 °F 90% 30.03 in - ENE 5.8 mph - -  
5:00 AM 20.7 °F 13.0 °F 19.2 °F 94% 30.03 in - ENE 5.8 mph - 0.02 in   Unknown
6:00 AM 20.7 °F 13.0 °F 19.4 °F 95% 30.00 in - ENE 5.8 mph - 0.04 in   Unknown
7:00 AM 21.0 °F 12.4 °F 19.8 °F 95% 29.96 in - East 6.9 mph - 0.03 in   Unknown
8:00 AM 22 °F - 20 °F 91% 29.94 in - ENE 4.6 mph - -  
8:00 AM 21.9 °F 15.7 °F 20.5 °F 94% 29.94 in - ENE 4.6 mph - 0.02 in   Unknown
9:00 AM 22.8 °F 14.5 °F 21.4 °F 94% 29.92 in - ENE 6.9 mph - 0.05 in   Unknown
10:00 AM 23.7 °F 15.6 °F 22.3 °F 94% 29.91 in - ENE 6.9 mph - 0.03 in   Unknown
11:00 AM 24 °F - 23 °F 94% 29.86 in - East 6.9 mph - -  
11:00 AM 24.1 °F 16.0 °F 23.0 °F 96% 29.86 in - East 6.9 mph - 0.09 in   Unknown
12:00 PM 28.6 °F 21.5 °F 27.9 °F 97% 29.80 in - ENE 6.9 mph - 0.07 in   Unknown
1:00 PM 31.3 °F 27.9 °F 30.6 °F 97% 29.79 in - North 3.5 mph - 0.02 in   Unknown
2:00 PM 29 °F - 28 °F 94% 29.75 in - NNE 3.5 mph - -  
2:00 PM 29.1 °F 25.4 °F 27.9 °F 95% 29.75 in - NNE 3.5 mph - 0.05 in   Unknown
3:00 PM 27.1 °F 23.2 °F 25.7 °F 94% 29.74 in - NNE 3.5 mph - N/A   Unknown
4:00 PM 26.1 °F 20.5 °F 23.9 °F 92% 29.74 in - NNE 4.6 mph - N/A   Unknown
5:00 PM 24 °F - 22 °F 88% 29.76 in - North 4.6 mph - -  
5:00 PM 24.1 °F 18.2 °F 21.9 °F 91% 29.76 in - North 4.6 mph - N/A   Unknown
6:00 PM 22.6 °F 16.5 °F 20.5 °F 91% 29.78 in - North 4.6 mph - N/A   Unknown
7:00 PM 22.5 °F 17.8 °F 20.8 °F 93% 29.80 in - North 3.5 mph - N/A   Unknown
8:00 PM 22 °F - 21 °F 92% 29.81 in - NNE 3.5 mph - -  
8:00 PM 22.3 °F 17.6 °F 20.7 °F 93% 29.81 in - NNE 3.5 mph - N/A   Unknown
9:00 PM 21.9 °F 17.2 °F 20.3 °F 93% 29.83 in - NNW 3.5 mph - N/A   Unknown
10:00 PM 21.9 °F 15.7 °F 19.8 °F 91% 29.83 in - NNE 4.6 mph - N/A   Unknown
11:00 PM 22 °F - 20 °F 86% 29.86 in - North 3.5 mph - -  
11:00 PM 21.9 °F 17.2 °F 19.6 °F 91% 29.86 in - North 3.5 mph - N/A   Unknown